Regional Weather Roundup
Issued by NWS

Home | Current Version | Previous Version | Text Only | Print | Product List | Glossary On
Versions: 1 2 3 4 5 6 7 8 9 10 11 12 13 14 15 16 17 18 19 20 21 22 23 24 25 26 27 28 29 30 31 32 33 34 35 36 37 38 39 40 41 42 43 44 45 46 47
000
ASUS45 KCYS 261410
RWRWY

WYOMING REGIONAL WEATHER ROUNDUP
NATIONAL WEATHER SERVICE CHEYENNE WY
700 AM MST MON JAN 26 2015

NOTE:  "FAIR" INDICATES FEW OR NO CLOUDS BELOW 12,000 FEET
WITH NO SIGNIFICANT WEATHER AND/OR OBSTRUCTIONS TO VISIBILITY.

WYZ001-261500-
YELLOWSTONE NATIONAL PARK

CITY           SKY/WX    TMP DP  RH WIND       PRES   REMARKS
LK YELLOWSTONE   N/A     10   6  84 CALM      30.46S
W YELLOWSTONE  NOT AVBL

$$
WYZ002>013-054>058-071-098>099-261500-
NORTHERN WYOMING

CITY           SKY/WX    TMP DP  RH WIND       PRES   REMARKS
JACKSON        CLOUDY    25  23  93 CALM      30.47S FOG
CODY           FAIR      30  28  93 NE6       30.20R WCI  24
GREYBULL       FAIR      15  13  91 S3        30.24R
WORLAND        FAIR      14  12  92 CALM      30.22S
SHERIDAN       FAIR      42  26  53 CALM      30.09S
BUFFALO        FAIR      48  24  39 SW7       30.14R
GILLETTE       FAIR      40  28  62 W9        30.11R WCI  34
HULETT           N/A    N/A N/A N/A MISG        N/A
NEWCASTLE      FAIR      36  28  75 N8        30.11R WCI  29

$$
WYZ014>020-022>026-101>103-261500-
CENTRAL WYOMING

CITY           SKY/WX    TMP DP  RH WIND       PRES   REMARKS
BIG PINEY      FAIR      19  15  84 SE5       30.41R WCI  12
PINEDALE       FAIR      12  12 100 W3        30.43R
DUBOIS         FAIR      32  23  69 NW14      30.34S WCI  22
LANDER         FAIR      33  24  69 S3        30.27S
RIVERTON       FAIR      28  23  81 S3        30.29R
CASPER         FAIR      39  26  59 SW16      30.24  WCI  30
DOUGLAS        FAIR      39  28  64 NW8       30.20R WCI  33

$$
WYZ021-027>030-104>119-261500-
SOUTHERN WYOMING

CITY           SKY/WX    TMP DP  RH WIND       PRES   REMARKS
EVANSTON       FAIR      31  24  75 CALM      30.42S
KEMMERER       FAIR      27  23  86 N8        30.42S WCI  18
FORT BRIDGER   FAIR      36  26  68 SW7       30.43S WCI  30
ROCK SPRINGS   FAIR      31  25  78 CALM      30.40S
DIXON          FAIR      26  21  81 S6        30.48R WCI  20
RAWLINS        FAIR      30  23  75 CALM      30.40R
SARATOGA       FAIR      27  21  80 MISG      30.41R
LARAMIE        FAIR      23  18  81 SE7       30.32R WCI  15
CHEYENNE       FAIR      47  22  37 NW12      30.23R
TORRINGTON     FAIR      34  27  75 CALM      30.15R
PINE BLUFFS    FAIR      43  27  52 W13       30.21R

$$


USA.gov is the U.S. government's official web portal to all federal, state and local government web resources and services.